Location: Pisa
(43.7170°N, 10.3830°E)
Time: 11:31:16
(UTC+02:00)

ISS - Visible Passes

Search period start: 11 May 2021 00:00
Search period end: 21 May 2021 00:00
Orbit: 418 x 421 km, 51.6° (Epoch: 11 May)

Date Brightness Start Highest point End Pass type
(mag) Time Alt. Az. Time Alt. Az. Time Alt. Az.
11 May -1.3 02:04:21 23° NNE 02:04:21 23° NNE 02:06:23 10° NE visible
11 May -1.2 03:38:22 10° NW 03:41:05 22° N 03:43:47 10° ENE visible
11 May -2.8 05:15:06 10° NW 05:18:25 52° NNE 05:21:44 10° ESE visible
12 May -0.8 01:18:16 14° NE 01:18:16 14° NE 01:18:58 10° NE visible
12 May -1.1 02:51:12 12° NW 02:53:26 21° N 02:56:05 10° NE visible
12 May -2.2 04:27:43 10° NW 04:30:54 37° NNE 04:34:05 10° E visible
13 May -1.2 02:05:02 19° NNW 02:05:48 21° N 02:08:27 10° NE visible
13 May -1.7 03:40:20 10° NW 03:43:21 29° NNE 03:46:22 10° E visible
13 May -3.8 05:17:00 10° WNW 05:20:22 65° SW 05:23:42 10° SE visible
14 May -1.2 01:18:38 22° N 01:18:38 22° N 01:20:54 10° NE visible
14 May -1.4 02:52:54 10° NW 02:55:45 24° NNE 02:58:36 10° ENE visible
14 May -3.7 04:29:34 10° WNW 04:32:57 80° NNE 04:36:19 10° ESE visible
14 May -1.9 21:15:28 10° SSE 21:17:03 13° SE 21:18:38 10° ESE visible
14 May -3.9 22:50:02 10° WSW 22:53:24 89° NW 22:55:37 20° ENE visible
15 May -1.5 00:27:41 10° WNW 00:30:33 25° NNW 00:33:26 10° NE visible
15 May -1.2 02:05:25 10° NW 02:08:08 22° N 02:10:50 10° ENE visible
15 May -2.9 03:42:09 10° NW 03:45:28 52° NNE 03:48:47 10° ESE visible
15 May -2.6 05:19:19 10° W 05:22:06 24° SW 05:24:52 10° S visible
15 May -3.8 22:02:42 10° SW 22:05:59 57° SE 22:09:18 10° ENE visible
15 May -1.8 23:39:55 10° W 23:42:58 31° NNW 23:46:01 10° NE visible
16 May -1.1 01:17:52 10° NW 01:20:29 21° N 01:23:08 10° NE visible
16 May -2.2 02:54:46 10° NW 02:57:57 37° NNE 03:01:08 10° E visible
16 May -3.3 04:31:36 10° WNW 04:34:47 38° SW 04:37:56 10° SSE visible
16 May -3.1 21:15:34 10° SSW 21:18:38 34° SE 21:21:43 10° ENE visible
16 May -2.4 22:52:13 10° W 22:55:25 40° NNW 22:58:38 10° NE visible
17 May -1.1 00:30:12 10° NW 00:32:51 21° N 00:35:29 10° NE visible
17 May -1.7 02:07:22 10° NW 02:10:23 29° NNE 02:13:24 10° E visible
17 May -3.9 03:44:03 10° WNW 03:47:25 64° SW 03:50:45 10° SE visible
17 May -3.1 22:04:35 10° WSW 22:07:54 57° NNW 22:11:14 10° NE visible
17 May -1.2 23:42:29 10° WNW 23:45:13 22° N 23:47:57 10° NE visible
18 May -1.4 01:19:57 10° NW 01:22:47 24° NNE 01:22:55 24° NNE visible
18 May -3.7 21:17:04 10° WSW 21:20:26 88° NNW 21:23:48 10° ENE visible
18 May -1.4 22:54:43 10° WNW 22:57:35 25° NNW 23:00:28 10° NE visible
19 May -1.2 00:32:27 10° NW 00:35:10 22° N 00:36:31 17° NE visible
19 May -0.8 02:09:11 10° NW 02:09:27 12° NW 02:09:27 12° NW visible
19 May -1.7 22:06:57 10° W 22:10:00 30° NNW 22:13:02 10° NE visible
19 May -1.1 23:44:53 10° NW 23:47:31 21° N 23:50:09 10° NE visible
20 May -1.4 01:21:48 10° NW 01:23:16 22° NNW 01:23:16 22° NNW visible
20 May -2.2 21:19:14 10° W 21:22:26 40° NNW 21:25:39 10° NE visible
20 May -1.1 22:57:14 10° NW 22:59:52 21° N 23:02:31 10° NE visible
